Bradshaw AFB, HI

5:47 PM HST on November 21, 2019 (GMT -1000)
Bradshaw Army Air Field

Weather History for PHSF - September, 2019

Change the Weather History Date:

Sunday, September 15, 2019

  Actual Average Record
Temperature  
Mean Temperature 65 °F -  
Max Temperature 73 °F 69 °F 77 °F (2004)
Min Temperature 56 °F 49 °F 42 °F (1998)
Growing Degree Days 15 (Base 50)    
Moisture  
Dew Point 55 °F    
Average Humidity 78    
Maximum Humidity 100    
Minimum Humidity 23    
Precipitation  
Precipitation 0.00 in - - ()
Sea Level Pressure  
Sea Level Pressure 30.14 in    
Wind  
Wind Speed 8 mph (NW)    
Max Wind Speed 18 mph    
Max Gust Speed 20 mph    
Visibility 8 miles    
Events Rain    
Averages and records for this station are not official NWS values.
T = Trace of Precipitation, MM = Missing Value Source: NWS Daily Summary

Daily Weather History Graph

Daily Weather History Graph

Search for Another Location

Airport or City:

Astronomy

Sep. 15, 2019 Rise Set
Actual Time 6:09 AM HST 6:24 PM HST
Civil Twilight 5:47 AM HST 6:46 PM HST
Nautical Twilight 5:21 AM HST 7:12 PM HST
Astronomical Twilight 4:56 AM HST 7:38 PM HST
Moon 7:46 PM HST (9/15) 7:25 AM HST (9/15)
Length of Visible Light 12h 59m
Length of Day
12h 15m
Full, 97% of the Moon is Illuminated
Sep 15
Full
Sep 21
Last Quarter
Sep 28
New
Oct 5
First Quarter
Oct 13
Full

Hourly Weather History & Observations

Time (HST) Temp. Dew Point Humidity Pressure Visibility Wind Dir Wind Speed Gust Speed Precip Events Conditions
12:58 AM - - N/A% - - North - - N/A   Unknown
1:58 AM - - N/A% - - North - - N/A   Unknown
2:58 AM - - N/A% - - North - - N/A   Unknown
3:58 AM - - N/A% - - North - - N/A   Unknown
4:58 AM - - N/A% - - North - - N/A   Unknown
5:58 AM 60.8 °F 37.6 °F 42% 30.31 in - South 8.1 mph - N/A   Unknown
6:58 AM 62.4 °F 38.3 °F 41% 30.31 in 10.0 mi South 6.9 mph - N/A   Mostly Cloudy
7:58 AM 66.2 °F 43.0 °F 43% 30.32 in 10.0 mi NW 9.2 mph - N/A   Mostly Cloudy
8:58 AM 70.7 °F 39.4 °F 32% 30.34 in 10.0 mi South 10.4 mph - N/A   Scattered Clouds
9:58 AM 71.4 °F 35.8 °F 27% 30.34 in 10.0 mi South 13.8 mph 19.6 mph N/A   Partly Cloudy
10:58 AM 72.7 °F 32.2 °F 23% 30.33 in 10.0 mi South 12.7 mph - N/A   Scattered Clouds
11:58 AM 71.1 °F 57.0 °F 61% 30.32 in 10.0 mi NNW 12.7 mph - N/A   Scattered Clouds
12:58 PM 73.2 °F 55.4 °F 54% 30.30 in 10.0 mi NNW 12.7 mph - N/A   Partly Cloudy
1:48 PM 69.8 °F 59.0 °F 68% 30.29 in 10.0 mi NNW 13.8 mph - N/A   Mostly Cloudy
1:58 PM 68.7 °F 57.4 °F 67% 30.29 in 10.0 mi NW 8.1 mph - N/A   Overcast
2:13 PM 68.0 °F 59.0 °F 73% 30.28 in 10.0 mi NNW 13.8 mph 19.6 mph N/A   Mostly Cloudy
2:18 PM 69.8 °F 59.0 °F 68% 30.28 in 10.0 mi NNW 18.4 mph - N/A   Mostly Cloudy
2:58 PM 67.3 °F 57.0 °F 70% 30.28 in 9.0 mi NW 4.6 mph - N/A   Mostly Cloudy
3:08 PM 68.0 °F 59.0 °F 73% 30.28 in 9.0 mi NW 9.2 mph - N/A   Mostly Cloudy
3:13 PM 66.2 °F 60.8 °F 83% 30.28 in 9.0 mi WNW 8.1 mph - N/A   Mostly Cloudy
3:58 PM 65.7 °F 59.4 °F 80% 30.28 in 10.0 mi NNW 11.5 mph 17.3 mph N/A   Mostly Cloudy
4:18 PM 66.2 °F 60.8 °F 83% 30.28 in 9.0 mi NNW 12.7 mph - N/A   Scattered Clouds
4:28 PM 64.4 °F 60.8 °F 88% 30.28 in 7.0 mi NNW 9.2 mph - N/A   Mostly Cloudy
4:58 PM 63.1 °F 59.9 °F 89% 30.28 in 8.0 mi NNW 4.6 mph - N/A   Mostly Cloudy
5:23 PM 64.4 °F 59.0 °F 83% 30.29 in 9.0 mi NNW 8.1 mph - N/A   Mostly Cloudy
5:28 PM 62.6 °F 59.0 °F 88% 30.29 in 9.0 mi NW 5.8 mph - N/A   Mostly Cloudy
5:33 PM 62.6 °F 59.0 °F 88% 30.29 in 9.0 mi North 8.1 mph - N/A   Scattered Clouds
5:58 PM 62.1 °F 59.7 °F 92% 29.93 in 9.0 mi NNW 8.1 mph - N/A   Scattered Clouds
6:05 PM 60.8 °F 59.0 °F 94% 29.96 in 8.0 mi North 8.1 mph - N/A Rain Light Rain
6:14 PM 60.8 °F 59.0 °F 94% 29.96 in 7.0 mi NNW 5.8 mph - N/A   Scattered Clouds
6:58 PM 60.8 °F 59.2 °F 94% 29.95 in 10.0 mi Calm Calm - 0.00 in   Mostly Cloudy
7:23 PM 60.8 °F 59.0 °F 94% 29.95 in 2.2 mi North 4.6 mph - N/A   Mostly Cloudy
7:28 PM 60.8 °F 59.0 °F 94% 29.95 in 1.1 mi WNW 3.5 mph - N/A   Mostly Cloudy
7:33 PM 60.8 °F 59.0 °F 94% 29.95 in 0.9 mi WNW 5.8 mph - N/A   Mostly Cloudy
7:39 PM 59.0 °F 59.0 °F 100% 29.95 in 1.0 mi NW 5.8 mph - N/A   Overcast
7:44 PM 59.0 °F 59.0 °F 100% 29.95 in 1.0 mi NNW 3.5 mph - N/A   Overcast
7:49 PM 60.8 °F 59.0 °F 94% 29.94 in 0.9 mi Calm Calm - N/A   Mist
7:58 PM 59.9 °F 59.4 °F 98% 29.94 in 0.6 mi NNW 3.5 mph - N/A   Mist
8:19 PM 59.0 °F 57.2 °F 94% 29.94 in 6.0 mi Calm Calm - N/A   Overcast
8:49 PM 59.0 °F 57.2 °F 94% 29.95 in 10.0 mi Calm Calm - N/A   Mostly Cloudy
8:58 PM 59.0 °F 57.2 °F 94% 29.95 in 10.0 mi Calm Calm - N/A   Mostly Cloudy
9:03 PM 59.0 °F 57.2 °F 94% 29.94 in 10.0 mi Calm Calm - N/A   Scattered Clouds
9:58 PM 59.0 °F 55.4 °F 88% 29.95 in 10.0 mi NNW 3.5 mph - N/A   Clear
10:58 PM 57.6 °F 54.1 °F 88% 29.94 in 10.0 mi Calm Calm - N/A   Mostly Cloudy
11:58 PM 56.5 °F 51.3 °F 83% 29.94 in 10.0 mi SE 3.5 mph - N/A   Mostly Cloudy